Back to catalog

COSMOS 1867 COOLANT

AliveLEO
NORAD 39668·DEBRIS·🇷🇺 Russia

Launched Jul 10, 1987 from Baikonur Cosmodrome

Loading…

Next Passes (next 24 hours)

TLE

FreshSource: Space-Track

Epoch: Sep 14, 2026, 05:31 UTC

1 39668U 87060AF  26257.22992293  .00000127  00000-0  81249-4 0  9991
2 39668  65.0085 117.7840 0019179 277.8025  82.0883 14.34056596649421

Track COSMOS 1867 COOLANT in real time with AllMySat

Download on the App Store